Regional Weather Roundup
Issued by NWS

Home | Current Version | Previous Version | Graphics & Text | Print | Product List | Glossary On
Versions: 1 2 3 4 5 6 7 8 9 10 11 12 13 14 15 16 17 18 19 20 21 22 23 24 25 26 27 28 29 30 31 32 33 34 35 36 37 38 39 40 41 42 43 44 45 46 47 48 49 50
000
ASUS45 KSLC 301510
RWRUT

UTAH REGIONAL WEATHER ROUNDUP
NATIONAL WEATHER SERVICE SALT LAKE CITY UT
800 AM MST FRI JAN 30 2015

UTZ001>011-023>025-301600-

NORTHERN UTAH

CITY           SKY/WX    TMP DP  RH WIND       PRES   REMARKS
BRIGHAM CITY   MOCLDY    33  31  90 CALM      30.15F
HILL AFB       MOCLDY    37  31  81 SE7       30.13F WCI  31
LOGAN          FOG       32  31  96 CALM      30.17F VSB 1/4
OGDEN          MOCLDY    33  31  92 CALM      30.14S
PROVO AIRPORT  CLOUDY    36  34  93 CALM      30.12F FOG
SALT LAKE CITY MOCLDY    37  35  92 W3        30.14S
VERNAL         MOCLDY    33  31  92 W3        30.19F
WENDOVER       CLOUDY    37  34  87 SE3       30.15F
HEBER CITY     FOG       32  32 100 CALM      30.15F VSB 1/4
WEST JORDAN    CLOUDY    37  37 100 NW7       30.14S WCI  32

$$

UTZ012>022-026-027-301600-

SOUTHERN/CENTRAL UTAH

CITY           SKY/WX    TMP DP  RH WIND       PRES   REMARKS
BLANDING       CLOUDY    32  32 100 NW6       30.25S WCI  26
BRYCE CANYON   FLURRIES  31  29  92 S6        30.08S WCI  25
CEDAR CITY     CLOUDY    36  35  96 CALM      30.02F FOG
DELTA          CLOUDY    37  37 100 NW9       30.08F WCI  30
HANKSVILLE     CLOUDY    37  37 100 CALM      30.16F
MILFORD        LGT RAIN  38  37  97 N17       30.05F WCI  28
MOAB/CYNLANDS  CLOUDY    41  39  93 E5        30.13F
PRICE          MIX PCPN  37  35  92 CALM      30.15F FOG
ST GEORGE      CLOUDY    46  43  87 CALM      30.02S
KANAB            N/A     39  34  81 N10       30.08S WCI  32

$$

REGIONAL REPORTS     COLORADO/ARIZONA

CITY           SKY/WX    TMP DP  RH WIND       PRES   REMARKS
CRAIG, CO      CLOUDY    33  30  88 NE3       30.20F
GRAND JUNCTION CLOUDY    37  32  82 CALM      30.15F
RIFLE          CLOUDY    33  28  81 CALM      30.18F
MONTROSE       CLOUDY    38  33  82 CALM      30.18F
CORTEZ         MIX PCPN  36  33  89 W6        30.16F WCI  31
PAGE, AZ       NOT AVBL
GRAND CANYON   LGT RAIN  36  34  92 E10G18    30.02S WCI  28
KINGMAN        LGT RAIN  47  45  93 N9        29.93F
FLAGSTAFF      LGT RAIN  36  35  96 E6        30.01F FOG     WCI  31

$$

REGIONAL REPORTS    NEVADA/IDAHO/WYOMING

CITY           SKY/WX    TMP DP  RH WIND       PRES   REMARKS
LAS VEGAS, NV  LGT RAIN  55  44  66 CALM      29.93S
ELY            LGT SNOW  33  32  96 N13       30.09F FOG     WCI  24
ELKO           CLOUDY    32  30  92 W3        30.12S
POCATELLO, ID  MOCLDY    29  29 100 CALM      30.21S
BURLEY         CLOUDY    32  29  88 E3        30.20F
EVANSTON, WY   CLOUDY    28  25  88 N5        30.16F WCI  23
ROCK SPRINGS   CLOUDY    29  25  85 CALM      30.19F

$$


USA.gov is the U.S. government's official web portal to all federal, state and local government web resources and services.